Regional Weather Roundup
Issued by NWS

Home | Current Version | Previous Version | Text Only | Print | Product List | Glossary Off
Versions: 1 2 3 4 5 6 7 8 9 10 11 12 13 14 15 16 17 18 19 20 21 22 23 24 25 26 27 28 29 30 31 32 33 34 35 36 37 38 39 40 41 42 43 44 45 46 47 48 49 50

000
ASUS43 KLOT 070500
RWRIL

ILLINOIS REGIONAL WEATHER ROUNDUP
NATIONAL WEATHER SERVICE CHICAGO/ROMEOVILLE IL
1200 AM CDT THU MAY 07 2015

NOTE: "FAIR" INDICATES FEW OR NO CLOUDS BELOW 12,000 FEET WITH NO
SIGNIFICANT WEATHER AND/OR OBSTRUCTIONS TO VISIBILITY.

* THESE STATIONS ARE NOT UNDER NWS QUALITY CONTROL. THEY ALSO MAY NOT
  REPORT WEATHER SUCH AS PRECIPITATION OR FOG.

ILZ001-002-007-009-015-016-024-070600-
NORTHWEST ILLINOIS

CITY           SKY/WX    TMP DP  RH WIND       PRES   REMARKS
MOLINE         MOCLDY    65  59  81 E8        29.99S
STERLING*      CLEAR     61  55  82 SE5       30.03R
$$

ILZ003-004-008-010-011-017-018-070600-
NORTH CENTRAL ILLINOIS

CITY           SKY/WX    TMP DP  RH WIND       PRES   REMARKS
ROCKFORD       PTCLDY    62  56  80 S6        30.06R HAZE
$$

ILZ005-006-012>014-019>023-070600-
NORTHEAST ILLINOIS

CITY           SKY/WX    TMP DP  RH WIND       PRES   REMARKS
CHICAGO-OHARE  PTCLDY    56  50  80 E3        30.06F
CHICAGO-MIDWAY CLEAR     59  51  75 CALM      30.07S
AURORA         PTCLDY    62  55  77 E6        30.05F HAZE
WAUKEGAN       PTCLDY    45  45 100 NE3       30.07S
DUPAGE AIRPORT CLEAR     60  55  83 CALM      30.06S
WHEELING       CLEAR     50  47  89 CALM      30.09S
NORTHERLY ISL    N/A     51  49  92 CALM        N/A
$$

LMZ740>746-070600-
SOUTHERN LAKE MICHIGAN

STATION/POSITION SKY/WX   TEMP    WIND        PRES    VSBY  WAVE
                          AIR SEA DIR/SP/G                  HT/PER
                          (F)     (DEG/KT/KT) (MB)    (MI)  (FT/S)
HARRISON CRIB              47     340/  6/  6   N/A
BURNHAM HARBOR             51      CALM  /  4   N/A
CALUMET HARBOR             49     350/  2/  3   N/A
BURNS HARBOR               54     240/  6/  7 1019.0S
MICHIGAN CITY              71     100/  7/  9   N/A
MICHIGAN CITY 6N           62 53  130/  4/  6   N/A           1
ST. JOSEPH                 64 52  160/ 10/ 10   N/A           1
$$

ILZ025>027-034>036-040-047-049-050-058-095>099-070600-
WEST-CENTRAL ILLINOIS

CITY           SKY/WX    TMP DP  RH WIND       PRES   REMARKS
QUINCY         CLEAR     68  52  56 SE7       30.00R
$$

ILZ028>032-037-038-041>044-048-051>054-059>061-070600-
CENTRAL ILLINOIS

CITY           SKY/WX    TMP DP  RH WIND       PRES   REMARKS
DECATUR        CLEAR     67  53  61 S3        30.06S
PEORIA         CLEAR     73  54  51 S8        30.03R
SPRINGFIELD    CLEAR     71  55  56 S10       30.04S
TAYLORVILLE    NOT AVBL
$$

ILZ033-039-045-046-055>057-062-063-070600-
EAST-CENTRAL ILLINOIS

CITY           SKY/WX    TMP DP  RH WIND       PRES   REMARKS
CHAMPAIGN      CLEAR     64  51  62 SE7       30.07S
MATTOON        CLEAR     68  54  60 S5        30.07R
$$

ILZ079-100>102-070600-
SOUTHWEST ILLINOIS

CITY           SKY/WX    TMP DP  RH WIND       PRES   REMARKS
CAHOKIA*       CLEAR     68  55  63 S5        30.04R
$$

ILZ064>066-069>071-074>076-080>082-084>086-088>090-092>094-070600-
SOUTH-CENTRAL ILLINOIS

CITY           SKY/WX    TMP DP  RH WIND       PRES   REMARKS
CARBONDALE     CLEAR     64  55  72 SE6       30.06R
MT. VERNON     CLEAR    N/A N/A N/A CALM      30.06F
$$

ILZ067-068-072-073-078-083-087-091-070600-
SOUTHEAST ILLINOIS

CITY           SKY/WX    TMP DP  RH WIND       PRES   REMARKS
LAWRENCEVILLE  CLEAR     67  56  67 CALM      30.08S
$$

ABBREVIATIONS USED IN REMARKS
   TC - TEMPERATURE IN CELSIUS
  WCI - WIND CHILL INDEX
   HX - HEAT INDEX
  VSB - VISIBILITY
$$



USA.gov is the U.S. government's official web portal to all federal, state and local government web resources and services.